Torna al catalogo

STARLINK-34570

AttivoComunicazioniSSO
NORAD 64860·PAYLOAD·🇺🇸 United States

Lanciato Jul 19, 2025 da Vandenberg Space Force Base

Loading…

Prossimi Passaggi (prossime 24 ore)

TLE

AggiornatoSource: CelesTrak SupGP

Epoca: Sep 14, 2026, 20:47 UTC

1 64860C 25152U   26257.86645833  .00038436  00000+0  11963-2 0  2576
2 64860  97.2849 108.4468 0002203  96.7989 357.0507 15.33333569    10

Traccia STARLINK-34570 in tempo reale con AllMySat

Download on the App Store